COSMOS 1275 DEB, 42134

Orbit data source: Space-Track

COSMOS 1275 DEB, 42134 is space debris in LEO originally from a launch on Thu, 04 Jun 1981 UTC launched from the Plesetsk Missile And Space Complex (PKMTR). Debris objects in space refer to the collection of defunct objects orbiting the Earth. Examples of debris include non-operational satellites, rocket bodies, and fragments generated from explosions, collisions, or faulty payload assembly.

Loading next visibility...
Identifier
42134, 1981-053QW
Orbit
LEO
Country
Flag of CISCIS
Related business
Manufacturer
Unknown
Mission
Spacecraft
Bus & Motor
Unknown
Mass
Unknown
Launch date (UTC)
1981-06-04 (45 years ago)
Launch vehicle
Unknown
Launch site
Plesetsk Missile And Space Complex (PKMTR)
Object type
Payload
Rocket body
Debris
Shape & HBR
Unknown shape, 0.1 m
Radar Cross Section
Small (<0.1 m²)

Expand to show TLE details & history
Last TLE update: 9 hours ago

TLE from 9 hours ago
0 COSMOS 1275 DEB
1 42134U 81053QW  26145.49699706  .00002011  00000-0  26007-2 0  9990
2 42134  83.0085 234.4023 0166515 299.2813  59.1777 13.56307287572457
Epoch: 2026-05-25T11:55Z
TLE epoch observation values (Epoch: 2026-05-25T11:55:40.545Z)
Latitude
-0.00005°
Longitude
172.39941°
Altitude
990.177 km
Speed
7.387 km/s
True Right ascension
15h 37m 36s
True Declination
0° 00' 00"
Sunlit
Object was in full shadow at epoch
Visualization orbit readout
Latitude
Unknown
Longitude
Unknown
Altitude
Unknown
Speed
Unknown
Apparent Right ascension
Unknown
Apparent Declination
Unknown
Sunlit
N/A
Visualization observer readout
Local Sidereal Time
06:27:15
Azimuth
Unknown
Elevation
Unknown
Doppler factor
Unknown
Orbital elements
Apogee altitude
1,169.942 km
Perigee altitude
922.686 km
Semi-major axis
7,424.451 km
Eccentricity
0.01665
Inclination
83.0085°
RAAN
234.4023°
Arg. of periapsis
299.2813°
True anomaly
60.83374°
Mean anomaly
59.1777°
Eccentric anomaly
60.00397°
Mean motion
3.39271 °/min
Orbital period
106.11 mins
BSTAR
0.0026007
Loading maneuver chart data...
Computing Atmospheric mass density...
Loading historical data...
Loading historical data...
Loading historical data...
Loading historical data...
Loading historical data...
Loading historical data...
Loading historical data...

Documentation

Showing up to 5 results
|